[[{"header":{"parameterUnit":"m.s-1","parameterCategory":1,"la1":30.2991,"la2":30.254,"lo1":-89.0895,"lo2":-89.0444,"dy":0.0017,"dx":0.0017,"nx":28,"ny":28,"refTime":"2023-10-25T09:00:00:Z","depth":0,"parameterNumber":2,"parameterNumberName":"U-component_of_WINDS"},"data":[0,0,0,0,0,0,0,0,0,0,0,0,0,0,0,0,0,0,0,0,0,0,0,0,0,0,0,0,0,0,0,0,0,0,0,0,0,0,0,0,0,0,0,0,0,0,0,0,0,0,0,0,0,0,0,0,0,0,-4.9946,-4.9946,0,-4.9982,-4.9983,-4.9983,-4.9841,-4.9837,-4.9832,-4.9828,-4.9864,-4.9869,-4.9874,0,0,0,0,0,0,0,0,0,0,0,0,0,-4.9754,-4.9759,-4.9946,-4.9946,-4.9947,-4.9982,-4.9983,-4.9983,-4.9842,-4.9836,-4.9831,-4.9827,-4.9863,-4.9868,-4.9874,0,0,0,0,0,0,0,0,0,0,0,0,0,-4.9819,-4.976,-4.9946,-4.9881,-4.9875,-4.9982,-4.9983,-4.9983,-4.9843,-4.9836,-4.983,-4.9824,-4.9861,-4.9868,-4.9875,-5.0046,0,0,-4.9897,-4.99,0,0,0,0,0,0,0,0,-4.9815,-4.9826,-4.989,-4.9885,-4.9879,-4.9901,-4.9928,-5.0004,-4.9844,-4.9855,-4.9828,-4.9821,-4.9881,-4.9886,-4.9907,-5.0048,-5.0049,-4.9898,-4.9902,-4.9905,-4.9907,0,0,0,0,0,0,0,-4.9811,-4.9824,-4.996,-4.9891,-4.9885,-4.9849,-4.9852,-4.9942,-4.9903,-4.9854,-4.9843,-4.985,-4.9877,-4.99,-4.9907,-5.005,-4.9898,-4.9904,-4.9909,-4.9911,-5.0334,-5.034,0,0,0,0,0,0,-4.9815,-4.9821,-4.9959,-4.9961,-4.9831,-4.9858,-4.986,-4.99,-4.9902,-4.9896,-4.9855,-4.9843,-4.9891,-4.9898,-4.9908,-5.0108,-4.9905,-4.9912,-4.9916,-5.0327,-5.0335,-5.0343,0,0,0,0,0,0,-4.9812,-4.9829,-4.9957,-4.9888,-4.9902,-4.9868,-4.9914,-4.9904,-4.9927,-4.9903,-4.9895,-4.9886,-4.9886,-4.9897,-5.0013,-5.0107,-4.9915,-4.9922,-5.0319,-5.033,-5.0339,-5.0511,0,0,0,0,0,0,-4.9807,-4.9829,-4.9893,-4.9891,-4.9906,-5.0063,-4.9919,-4.9909,-4.994,-4.9925,-4.9929,-4.9924,-4.9882,-5.0003,-5.002,-5.0114,-4.9928,-5.031,-5.0324,-5.0336,-5.0497,-5.0526,-5.0551,0,0,0,0,0,-4.98,-4.9939,-4.9897,-4.9914,-4.9986,-5.0068,-5.0077,-5.0026,-4.9948,-5.0013,-4.9998,-4.9924,-5.0095,-5.0016,-5.0034,-5.0132,-5.0304,-5.032,-5.0335,-5.0484,-5.052,-5.055,0,0,0,0,0,0,-4.9951,-4.9937,-4.989,-5.0033,-5.0053,-5.0044,-5.0124,-5.0066,-5.0108,-5.0091,-5.0026,-5.0029,-5.0156,-5.0155,-5.0068,-5.0298,-5.0186,-5.0206,-5.0293,-5.0327,-5.0354,-5.035,-4.9934,0,0,0,0,0,-5.0002,-5.007,-5.0054,-5.0181,-5.0194,-5.0158,-5.0192,-5.0151,-5.0169,-5.0177,-5.017,-5.019,-5.0248,-5.0288,-5.034,-5.0497,-5.0496,-5.0573,-5.06,-5.0622,-5.064,-5.0723,-5.0757,-5.0394,-5.0393,-5.0393,0,0,-5.0105,-5.0106,-5.0153,-5.0211,-5.0222,-5.0295,-5.0166,-5.0247,-5.03,-5.0189,-5.0298,-5.0295,-5.0313,-5.045,-5.051,-5.0453,-5.0741,-5.0642,-5.066,-5.0665,-5.0743,-5.0777,-5.0808,-5.0404,-5.0402,-5.04,0,0,-5.033,-5.0338,-5.0445,-5.046,-5.0479,-5.0454,-5.0481,-5.0482,-5.0475,-5.0584,-5.0503,-5.0565,-5.0667,-5.0683,-5.0705,-5.0942,-5.0875,-5.0961,-5.1101,-5.1183,-5.1212,-5.1237,-5.1321,-5.1352,-5.0978,-5.0979,-5.0979,0,-5.0456,-5.0561,-5.0507,-5.0595,-5.0623,-5.0529,-5.0637,-5.0653,-5.0689,-5.071,-5.0647,-5.0774,-5.0779,-5.092,-5.0978,-5.0999,-5.1027,-5.0958,-5.1212,-5.1237,-5.126,-5.1339,-5.1371,-5.0989,-5.0988,-5.0987,-5.0986,0,-5.0715,-5.079,-5.0875,-5.0912,-5.0951,-5.1048,-5.1009,-5.1054,-5.1012,-5.0995,-5.1108,-5.1112,-5.1164,-5.1195,-5.1154,-5.1331,-5.1295,-5.1224,-5.1109,-5.1305,-5.1379,-5.1409,-5.1003,-5.1,-5.0997,-5.0994,0,0,-5.1032,-5.1042,-5.1073,-5.109,-5.1106,-5.1163,-5.1257,-5.1309,-5.135,-5.1378,-5.1455,-5.1546,-5.148,-5.1505,-5.1466,-5.1539,-5.1726,-5.1458,-5.1457,-5.1507,-5.1921,-5.1973,-5.2009,-5.1683,-5.1689,-5.1693,-5.1919,0,-5.1252,-5.1414,-5.1369,-5.153,-5.1599,-5.1512,-5.1595,-5.1614,-5.1602,-5.1658,-5.1644,-5.1709,-5.1618,-5.1633,-5.1701,-5.1688,-5.1808,-5.1672,-5.1754,-5.1757,-5.175,-5.2048,-5.2103,-5.2315,-5.1947,-5.1952,-5.1956,0,-5.1529,-5.1571,-5.174,-5.1746,-5.1773,-5.1848,-5.1893,-5.1949,-5.197,-5.1956,-5.1986,-5.1933,-5.2026,-5.1914,-5.2042,-5.1951,-5.1982,-5.1982,-5.1989,-5.1992,-5.1867,-5.2058,-5.2382,-5.2414,-5.2001,-5.1997,-5.1994,0,-5.1743,-5.1841,-5.1954,-5.1972,-5.1983,-5.2037,-5.2044,-5.2059,-5.2094,-5.2134,-5.2156,-5.2207,-5.2234,-5.2274,-5.2236,-5.2158,-5.2371,-5.2255,-5.2361,-5.2362,-5.2407,-5.2404,-5.2739,-5.2431,-5.2431,-5.243,-5.243,0,-5.1992,-5.2098,-5.2051,-5.212,-5.2238,-5.2187,-5.2304,-5.2301,-5.2316,-5.2384,-5.2313,-5.2378,-5.2324,-5.2386,-5.2357,-5.2467,-5.248,-5.2471,-5.2462,-5.2477,-5.2478,-5.2495,-5.2478,-5.2439,-5.2437,-5.2435,-5.2434,0,-5.2248,-5.2221,-5.2339,-5.2341,-5.2344,-5.2431,-5.2432,-5.2497,-5.2481,-5.2568,-5.2586,-5.2561,-5.2629,-5.2596,-5.2667,-5.2648,-5.279,-5.2762,-5.2784,-5.2775,-5.2883,-5.2873,-5.3239,-5.3284,-5.2949,-5.2952,-5.2955,0,-5.2408,-5.2488,-5.25,-5.2541,-5.2553,-5.262,-5.2656,-5.2611,-5.2651,-5.2683,-5.2744,-5.2807,-5.2854,-5.2968,-5.2956,-5.301,-5.2982,-5.3106,-5.2989,-5.3002,-5.2982,-5.2977,-5.2985,-5.3129,-5.3133,-5.3136,-5.3138,0,-5.2693,-5.2677,-5.2732,-5.2784,-5.2829,-5.2867,-5.2899,-5.2937,-5.2893,-5.2942,-5.3012,-5.305,-5.3124,-5.3187,-5.3235,-5.3242,-5.3184,-5.3176,-5.3203,-5.3218,-5.3227,-5.3223,-5.2846,-5.3167,-5.3164,-5.3162,-5.3161,-5.3159,-5.2905,-5.2972,-5.2992,-5.3057,-5.3077,-5.3109,-5.3171,-5.3164,-5.3222,-5.3279,-5.3249,-5.3331,-5.3352,-5.3411,-5.3427,-5.349,-5.3441,-5.348,-5.349,-5.35,-5.3514,-5.3219,-5.3499,-5.3498,-5.3497,-5.3497,-5.3496,0,-5.3185,-5.3195,-5.3255,-5.3303,-5.3355,-5.3298,-5.3332,-5.3378,-5.3451,-5.3476,-5.3526,-5.3607,-5.3669,-5.3664,-5.3721,-5.3773,-5.3748,-5.3789,-5.3784,-5.3786,-5.3555,-5.3526,-5.3809,-5.3809,-5.3809,-5.3809,-5.3809,-5.3809,-5.3337,-5.3449,-5.3436,-5.3558,-5.3566,-5.3647,-5.3671,-5.3701,-5.3721,-5.3816,-5.3867,-5.3864,-5.3878,-5.3936,-5.3991,-5.3987,-5.4011,-5.4063,-5.405,-5.3834,-5.3802,-5.3773,-5.3744,-5.4069,-5.4069,-5.4275,-5.4277,-5.4278]},{"header":{"parameterUnit":"m.s-1","parameterCategory":1,"la1":30.2991,"la2":30.254,"lo1":-89.0895,"lo2":-89.0444,"dy":0.0017,"dx":0.0017,"nx":28,"ny":28,"refTime":"2023-10-25T09:00:00:Z","depth":0,"parameterNumber":3,"parameterNumberName":"V-component_of_WINDS"},"data":[0,0,0,0,0,0,0,0,0,0,0,0,0,0,0,0,0,0,0,0,0,0,0,0,0,0,0,0,0,0,0,0,0,0,0,0,0,0,0,0,0,0,0,0,0,0,0,0,0,0,0,0,0,0,0,0,0,0,0.5744,0.5741,0,0.5503,0.55,0.5498,0.5299,0.5297,0.5295,0.5293,0.5048,0.5043,0.5039,0,0,0,0,0,0,0,0,0,0,0,0,0,0.6035,0.6031,0.5744,0.5741,0.5738,0.5504,0.55,0.5497,0.5299,0.5297,0.5294,0.5292,0.5049,0.5044,0.5039,0,0,0,0,0,0,0,0,0,0,0,0,0,0.5863,0.6029,0.5745,0.5611,0.5597,0.5504,0.55,0.5496,0.53,0.5297,0.5294,0.5291,0.5051,0.5045,0.5038,0.5059,0,0,0.5017,0.5014,0,0,0,0,0,0,0,0,0.5873,0.5853,0.5634,0.562,0.5604,0.5428,0.5513,0.535,0.5301,0.5413,0.5293,0.5289,0.5177,0.516,0.5121,0.5047,0.5037,0.5016,0.5012,0.5009,0.5007,0,0,0,0,0,0,0,0.5885,0.5862,0.5649,0.5631,0.5613,0.5564,0.5536,0.5481,0.5316,0.5403,0.5388,0.5362,0.5168,0.5129,0.5114,0.5033,0.5016,0.501,0.5006,0.5003,0.4965,0.4968,0,0,0,0,0,0,0.5917,0.5873,0.5656,0.5641,0.5733,0.5561,0.553,0.5488,0.5316,0.5286,0.5365,0.5354,0.5142,0.5122,0.5105,0.5118,0.5009,0.5003,0.4999,0.4962,0.4966,0.4969,0,0,0,0,0,0,0.5924,0.59,0.5666,0.5753,0.5719,0.556,0.5514,0.5485,0.5444,0.5287,0.5257,0.5355,0.5138,0.5114,0.5072,0.5107,0.5,0.4993,0.4959,0.4963,0.4968,0.5147,0,0,0,0,0,0,0.5934,0.5904,0.5909,0.5755,0.5716,0.5637,0.5516,0.5482,0.5433,0.5416,0.5269,0.5242,0.5134,0.5083,0.5065,0.5096,0.4988,0.4955,0.4961,0.4966,0.5137,0.5157,0.5174,0,0,0,0,0,0.5945,0.5969,0.5911,0.5886,0.5719,0.5639,0.5617,0.5492,0.5437,0.5441,0.5341,0.5246,0.5107,0.508,0.5058,0.5088,0.4952,0.4959,0.4966,0.5129,0.5153,0.5174,0,0,0,0,0,0,0.6132,0.5946,0.5879,0.5854,0.5764,0.5606,0.5608,0.5522,0.5446,0.5433,0.5282,0.525,0.5225,0.5151,0.5126,0.51,0.5017,0.502,0.5148,0.517,0.5189,0.5207,0.4982,0,0,0,0,0,0.617,0.612,0.5961,0.5954,0.5913,0.5769,0.5729,0.5641,0.5542,0.5503,0.5398,0.5306,0.5241,0.5201,0.5133,0.5126,0.5092,0.5135,0.5154,0.517,0.5174,0.5167,0.5184,0.4992,0.4992,0.4992,0,0,0.6249,0.6141,0.6119,0.5989,0.5909,0.5862,0.5738,0.5692,0.5656,0.5495,0.5449,0.537,0.5257,0.5233,0.5217,0.5171,0.522,0.5179,0.5193,0.5188,0.5176,0.5194,0.521,0.4997,0.4996,0.4995,0,0,0.6368,0.6282,0.6267,0.619,0.607,0.5974,0.5972,0.5826,0.5768,0.5719,0.5598,0.5553,0.5444,0.5369,0.5317,0.5411,0.5322,0.5393,0.549,0.5484,0.5499,0.5512,0.5546,0.556,0.5397,0.5398,0.5398,0,0.6481,0.6404,0.6271,0.6233,0.618,0.6033,0.6018,0.595,0.5815,0.5782,0.5733,0.5594,0.5507,0.5464,0.5488,0.545,0.5443,0.5408,0.5508,0.5519,0.5529,0.556,0.5574,0.5407,0.5406,0.5405,0.5404,0,0.6549,0.6498,0.6501,0.6374,0.6322,0.6296,0.616,0.6123,0.6041,0.5951,0.5904,0.5795,0.5703,0.5686,0.5605,0.5632,0.5608,0.5536,0.5449,0.5559,0.5586,0.5597,0.5421,0.5417,0.5415,0.5412,0,0,0.6778,0.6579,0.6583,0.6524,0.6383,0.6341,0.6309,0.6219,0.6191,0.6103,0.6074,0.5986,0.5919,0.586,0.5769,0.5764,0.5847,0.5691,0.5686,0.5725,0.5872,0.5929,0.5944,0.5787,0.5789,0.579,0.5882,0,0.6875,0.6809,0.6689,0.6662,0.6614,0.6475,0.6448,0.6359,0.6275,0.6223,0.6129,0.607,0.5985,0.5949,0.5938,0.584,0.5875,0.5831,0.5759,0.5759,0.5793,0.5958,0.6016,0.6108,0.5892,0.5893,0.5895,0,0.6978,0.6899,0.6868,0.6731,0.6707,0.6684,0.6593,0.6544,0.6441,0.6381,0.6317,0.6217,0.6178,0.61,0.6044,0.6017,0.5981,0.5929,0.5929,0.5918,0.5834,0.5952,0.6134,0.6149,0.591,0.5908,0.5907,0,0.7149,0.7035,0.7002,0.6956,0.6796,0.6784,0.6716,0.661,0.6564,0.6485,0.6454,0.6372,0.6327,0.6266,0.6148,0.6101,0.6106,0.6017,0.6056,0.6059,0.6062,0.6064,0.6242,0.6039,0.6039,0.6039,0.6039,0,0.727,0.7256,0.7077,0.7057,0.7038,0.6902,0.6887,0.6807,0.6715,0.6677,0.6552,0.652,0.6365,0.6316,0.6223,0.6192,0.6173,0.6123,0.6099,0.6135,0.6141,0.6109,0.61,0.6042,0.6041,0.6041,0.604,0,0.7457,0.7336,0.7291,0.7144,0.7107,0.71,0.6974,0.695,0.6859,0.6814,0.6795,0.6654,0.6589,0.6465,0.6365,0.6303,0.6293,0.625,0.6328,0.6313,0.6359,0.6357,0.6523,0.6539,0.6327,0.6329,0.6331,0,0.7542,0.7528,0.7381,0.7347,0.7285,0.7231,0.7184,0.705,0.7007,0.689,0.6881,0.6806,0.6739,0.6643,0.6531,0.6455,0.6409,0.6473,0.6397,0.6434,0.6412,0.6414,0.6413,0.6491,0.6494,0.6496,0.6498,0,0.7706,0.7648,0.7584,0.7502,0.745,0.7378,0.7299,0.7279,0.7127,0.7085,0.7017,0.6966,0.6865,0.6793,0.6701,0.6632,0.6541,0.6523,0.6528,0.6564,0.6611,0.6588,0.6376,0.652,0.6517,0.6516,0.6515,0.6514,0.7844,0.7827,0.7721,0.7656,0.7583,0.7514,0.7484,0.7391,0.7332,0.724,0.7164,0.7104,0.7003,0.687,0.6807,0.6759,0.6714,0.6721,0.6723,0.6727,0.6743,0.6619,0.6741,0.674,0.674,0.6739,0.6738,0,0.8003,0.7928,0.787,0.7765,0.7715,0.7633,0.7543,0.7506,0.7454,0.7368,0.7305,0.7229,0.716,0.7044,0.6965,0.6949,0.6905,0.6933,0.6933,0.6919,0.6786,0.679,0.697,0.697,0.697,0.697,0.6969,0.6969,0.8079,0.8046,0.7976,0.7906,0.7831,0.7771,0.7727,0.7662,0.7593,0.7514,0.7456,0.7381,0.7283,0.7196,0.713,0.7097,0.7075,0.7116,0.7072,0.6949,0.6928,0.6907,0.691,0.7112,0.7113,0.7208,0.7209,0.721]}]]